Simultaneous Nadir Overpasses (SNOs) Predictions

Prediction of SNOs near US between AQUA and NPP Satellite Orbit:

Table of predicted SNOs near US for the next 10.0 days since TLE Epoch: 3/29/2019
Index Date (AQUA) Time (AQUA) AQUA Lat,Lon Date (NPP) Time (NPP) NPP Lat,Lon Distance(km) Time Diff (sec)
1 03/30/2019 07:19:16 49.89, -76.03 03/30/2019 07:19:52 50.29, -78.16 158.82 36
2 03/30/2019 08:58:09 49.89,-100.75 03/30/2019 09:01:19 50.45,-103.46 203.28 190
3 04/01/2019 18:17:26 49.97, -80.22 04/01/2019 18:10:07 49.73, -81.71 110.34 439
4 04/01/2019 19:56:19 49.96,-104.93 04/01/2019 19:51:34 49.57,-107.01 155.54 285
5 04/01/2019 21:31:27 36.55,-124.99 04/01/2019 21:29:11 36.08,-127.48 229.13 136
6 04/04/2019 09:25:03 20.02,-114.28 04/04/2019 09:16:43 18.61,-115.02 174.45 500
7 04/07/2019 06:31:37 43.69, -66.04 04/07/2019 06:30:49 44.04, -68.00 162.02 48
8 04/07/2019 08:08:45 49.93, -88.38 04/07/2019 08:10:29 50.38, -90.78 178.19 104
9 04/07/2019 09:47:38 49.94,-113.10 04/07/2019 09:51:56 50.54,-116.08 222.54 258




NCC Satellite Simultaneous Nadir Overpasses (SNOs) Prediction Service
